Total_Precipitation_Accumulation
2.81 2.97 2.72 2.44 2.41 2.38 2.77 3.26 3.63 3.36 2.91 2.62 2.42 2.33 2.44 2.64 2.96 2.69 2.73 2.71 2.38 2.09 1.84 1.78 1.75 1.71 1.72 1.81 1.96 2.02 2.06 2.14 2.30 2.57 2.89 3.28 3.66 3.80
2.89 2.98 2.83 2.56 2.63 2.49 2.58 2.98 3.31 3.51 3.15 2.39 2.38 2.28 2.43 2.35 2.77 2.56 2.75 2.75 2.34 2.08 1.84 1.73 1.66 1.60 1.58 1.61 1.67 1.77 1.85 1.84 1.86 1.98 2.15 2.36 2.54 2.65
2.82 2.80 2.78 2.84 2.88 2.72 2.84 2.92 3.03 3.42 3.41 2.69 2.52 2.58 2.72 2.75 2.79 2.65 2.51 2.52 2.29 2.21 1.92 1.75 1.63 1.57 1.54 1.50 1.51 1.51 1.56 1.61 1.63 1.66 1.74 1.84 1.90 1.94
3.15 3.30 3.06 3.09 3.12 3.00 3.01 2.98 3.05 3.35 3.39 3.12 2.86 2.81 2.88 2.84 2.88 2.69 2.26 2.15 2.23 2.39 2.13 1.85 1.69 1.58 1.53 1.46 1.43 1.40 1.41 1.47 1.52 1.50 1.50 1.57 1.66 1.68
2.94 3.22 3.25 3.47 3.20 3.22 3.16 3.03 3.05 3.08 3.29 3.10 2.85 3.01 3.00 2.95 2.91 2.54 2.34 2.41 2.20 2.47 2.41 2.01 1.77 1.66 1.55 1.44 1.33 1.28 1.27 1.31 1.38 1.44 1.45 1.44 1.44 1.47
2.67 2.81 2.96 3.26 3.25 3.36 3.19 3.18 3.30 3.38 3.51 3.34 3.12 3.19 3.30 3.30 3.19 2.82 2.69 2.57 2.41 2.19 2.32 2.10 1.94 1.84 1.70 1.57 1.46 1.33 1.31 1.31 1.32 1.33 1.37 1.42 1.43 1.40
2.64 2.62 2.62 2.88 2.98 3.08 2.79 2.99 3.35 3.42 3.47 3.39 3.25 3.26 3.25 3.42 3.14 2.98 2.85 2.84 2.72 2.42 2.31 2.03 1.93 1.78 1.73 1.76 1.68 1.54 1.43 1.39 1.39 1.37 1.35 1.35 1.41 1.48
2.92 2.86 2.72 2.66 2.68 2.73 2.73 2.83 3.01 3.02 3.09 3.23 3.15 3.12 3.15 3.30 3.48 3.36 3.20 3.06 2.80 2.48 2.54 2.20 2.04 1.95 1.78 1.65 1.80 1.74 1.57 1.47 1.42 1.42 1.44 1.48 1.52 1.55
2.96 2.92 2.58 2.41 2.67 2.56 2.71 2.73 2.55 2.49 2.53 2.70 2.71 2.71 3.19 3.52 3.87 3.52 3.35 3.18 2.88 2.72 2.76 2.38 2.17 2.07 1.87 1.80 1.96 1.72 1.53 1.42 1.40 1.41 1.49 1.54 1.57 1.58
2.66 2.77 2.69 2.56 2.59 2.73 2.63 2.35 2.12 2.10 2.17 2.09 2.08 2.34 2.82 3.46 3.82 3.79 3.82 3.56 3.19 2.78 2.66 2.39 2.16 2.02 1.83 1.84 2.07 1.94 1.73 1.54 1.44 1.43 1.43 1.48 1.52 1.56
2.41 2.44 2.44 2.29 2.46 2.62 2.48 2.22 2.01 1.89 1.96 1.98 1.94 2.17 2.45 2.83 3.28 3.54 3.47 3.35 2.92 2.51 2.44 2.34 2.16 2.18 2.10 1.96 1.95 2.09 1.91 1.72 1.62 1.54 1.50 1.48 1.49 1.54
2.52 2.52 2.57 2.29 2.24 2.21 2.08 2.08 1.89 1.78 1.93 1.91 1.85 1.87 1.99 2.32 2.82 2.91 3.00 3.17 2.88 2.54 2.25 2.31 2.20 2.39 2.32 2.03 1.93 1.92 1.84 1.84 1.80 1.69 1.60 1.57 1.59 1.41
2.29 2.22 2.24 2.23 1.99 1.82 1.77 1.73 1.69 1.81 1.92 1.87 1.77 1.75 1.88 2.06 2.23 2.51 2.79 2.88 2.74 2.38 2.21 2.39 2.24 2.29 2.31 2.03 1.89 1.87 1.79 1.70 1.70 1.76 1.79 1.79 1.76 1.58
2.32 2.30 2.29 2.28 1.98 1.82 1.64 1.51 1.62 1.67 1.69 1.80 1.69 1.58 1.60 1.72 1.98 2.30 2.64 2.77 2.70 2.56 2.57 2.66 2.53 2.42 2.38 2.16 1.93 1.81 1.79 1.75 1.72 1.74 1.78 2.04 1.99 1.92
2.16 2.51 2.54 2.45 2.19 1.88 1.78 1.80 1.76 1.63 1.64 1.65 1.55 1.47 1.52 1.70 1.99 2.34 2.63 2.85 2.80 2.63 2.59 2.59 2.62 2.69 2.73 2.41 2.10 2.01 2.03 1.95 1.82 1.79 1.79 1.85 1.89 1.95
2.13 2.44 2.59 2.56 2.40 2.14 2.02 1.95 1.74 1.68 1.76 1.73 1.74 1.77 1.90 2.03 2.17 2.32 2.57 2.75 2.82 2.65 2.57 2.57 2.62 2.80 2.75 2.59 2.46 2.28 2.15 2.07 2.01 2.02 2.03 2.00 2.00 1.97
2.30 2.49 2.62 2.71 2.72 2.63 2.52 2.44 2.32 2.17 2.00 1.94 2.01 2.02 2.07 2.15 2.19 2.36 2.64 2.74 2.67 2.43 2.45 2.57 2.70 2.82 2.84 2.84 2.67 2.34 2.19 2.06 2.02 2.13 2.18 2.11 1.99 1.93
2.24 2.34 2.59 2.79 2.87 2.97 3.01 2.88 2.64 2.43 2.25 2.24 2.21 2.22 2.26 2.25 2.28 2.44 2.67 2.76 2.62 2.43 2.39 2.50 2.78 2.97 2.95 2.80 2.54 2.33 2.21 2.06 1.95 2.01 2.04 2.01 1.83 1.67
2.02 2.16 2.30 2.45 2.67 2.90 2.98 2.92 2.67 2.53 2.55 2.54 2.47 2.48 2.54 2.50 2.46 2.53 2.72 2.84 2.78 2.63 2.55 2.62 2.76 2.87 2.73 2.36 2.09 2.02 2.01 1.95 1.98 1.98 1.91 1.85 1.74 1.64
1.70 1.89 2.10 2.28 2.48 2.75 2.93 2.96 2.87 2.77 2.75 2.82 2.83 2.78 2.79 2.68 2.53 2.44 2.58 2.71 2.76 2.75 2.70 2.61 2.55 2.61 2.61 2.42 2.23 1.99 1.91 1.99 1.99 1.95 1.88 1.85 1.82 1.88
1.58 1.63 1.73 1.96 2.23 2.49 2.75 2.92 2.91 2.80 2.74 2.80 2.81 2.79 2.83 2.81 2.63 2.46 2.49 2.71 2.76 2.69 2.53 2.33 2.28 2.58 2.79 2.93 2.66 2.16 1.95 1.99 2.08 2.07 2.04 2.14 2.04 1.93
1.64 1.65 1.77 1.95 2.17 2.42 2.62 2.73 2.78 2.78 2.73 2.70 2.63 2.58 2.62 2.64 2.49 2.42 2.41 2.50 2.54 2.53 2.49 2.51 2.73 2.92 2.96 2.93 2.55 2.19 2.08 2.10 2.24 2.36 2.22 2.07 1.97 1.85
1.77 1.76 1.80 1.90 2.08 2.31 2.48 2.63 2.70 2.73 2.74 2.74 2.69 2.59 2.57 2.59 2.53 2.49 2.48 2.50 2.51 2.50 2.63 2.74 2.80 2.89 2.85 2.79 2.71 2.56 2.39 2.32 2.35 2.28 2.02 1.88 1.79 1.71